TimeEST,TemperatureF,Dew PointF,Humidity,Sea Level PressureIn,VisibilityMPH,Wind Direction,Wind SpeedMPH,Gust SpeedMPH,PrecipitationIn,Events,Conditions,WindDirDegrees,DateUTC
12:53 AM,66.9,55.9,68,30.29,10.0,NE,9.2,-,N/A,,Clear,50,2012-03-06 05:53:00
1:53 AM,66.9,55.9,68,30.28,10.0,NE,10.4,16.1,N/A,,Clear,40,2012-03-06 06:53:00
2:53 AM,66.9,55.0,66,30.26,10.0,NE,10.4,21.9,N/A,,Clear,50,2012-03-06 07:53:00
3:53 AM,66.9,55.0,66,30.25,10.0,NE,12.7,19.6,N/A,,Clear,40,2012-03-06 08:53:00
4:53 AM,66.9,55.9,68,30.25,10.0,NE,12.7,23.0,N/A,,Clear,40,2012-03-06 09:53:00
5:53 AM,66.9,55.9,68,30.27,10.0,NE,12.7,-,N/A,,Clear,40,2012-03-06 10:53:00
6:53 AM,66.9,55.9,68,30.28,10.0,NE,12.7,20.7,N/A,,Clear,40,2012-03-06 11:53:00
7:53 AM,68.0,57.0,68,30.31,10.0,ENE,10.4,19.6,N/A,,Partly Cloudy,60,2012-03-06 12:53:00
8:53 AM,71.1,55.9,59,30.32,10.0,NE,9.2,16.1,N/A,,Clear,50,2012-03-06 13:53:00
9:53 AM,72.0,55.0,55,30.32,10.0,NE,13.8,20.7,N/A,,Clear,50,2012-03-06 14:53:00
10:53 AM,73.9,55.0,52,30.32,10.0,ENE,18.4,25.3,N/A,,Clear,70,2012-03-06 15:53:00
11:53 AM,75.9,55.9,50,30.32,10.0,ENE,18.4,29.9,N/A,,Clear,70,2012-03-06 16:53:00
12:53 PM,75.9,55.9,50,30.30,10.0,ENE,21.9,29.9,N/A,,Clear,70,2012-03-06 17:53:00
1:53 PM,75.0,57.0,53,30.27,10.0,East,20.7,29.9,N/A,,Overcast,90,2012-03-06 18:53:00
2:53 PM,75.0,57.9,55,30.26,10.0,East,18.4,33.4,N/A,,Mostly Cloudy,80,2012-03-06 19:53:00
3:53 PM,73.9,57.0,55,30.25,10.0,East,23.0,31.1,N/A,,Overcast,90,2012-03-06 20:53:00
4:53 PM,73.0,57.0,57,30.25,10.0,ENE,15.0,33.4,N/A,,Scattered Clouds,70,2012-03-06 21:53:00
5:53 PM,73.0,57.9,59,30.25,10.0,East,18.4,24.2,N/A,,Overcast,80,2012-03-06 22:53:00
6:53 PM,72.0,59.0,64,30.26,10.0,ENE,12.7,21.9,N/A,,Overcast,70,2012-03-06 23:53:00
7:53 PM,72.0,59.0,64,30.27,10.0,ENE,13.8,20.7,N/A,,Mostly Cloudy,70,2012-03-07 00:53:00
8:53 PM,71.6,60.8,69,30.28,10.0,East,15.0,24.2,N/A,,Mostly Cloudy,80,2012-03-07 01:53:00
9:53 PM,72.0,60.1,66,30.30,10.0,ENE,10.4,18.4,N/A,,Overcast,70,2012-03-07 02:53:00
10:53 PM,72.0,60.1,66,30.29,10.0,ENE,13.8,20.7,N/A,,Overcast,60,2012-03-07 03:53:00
11:53 PM,73.0,62.1,68,30.28,10.0,East,18.4,24.2,N/A,,Overcast,80,2012-03-07 04:53:00